CW7520 Weather Reports


Display with metric or nautical units.
time (UTC)temp
F
wind
direction
speed
MPH
gust
MPH
rain 1hr
in
rain 24hr
in
rain mn
in
humidity
%
barometer
mb
20260906062704 63 0 0.0 0.0 0.00 0.02 0.00 65 1021.0
20260906061804 63 0 0.0 0.0 0.00 0.02 0.00 64 1021.0
20260906061118 63 0 0.0 0.0 0.00 0.02 0.00 64 1020.9
20260906060004 64 0 0.0 0.0 0.00 0.02 0.00 65 1021.1
20260906055404 64 0 0.0 0.0 0.00 0.02 0.00 65 1021.0
20260906054503 64 0 0.0 0.0 0.00 0.02 0.00 64 1021.0
20260906053608 64 0 0.0 0.0 0.00 0.02 0.00 63 1020.9
20260906052708 64 0 0.0 0.0 0.00 0.02 0.00 64 1020.8
20260906051808 64 0 0.0 0.0 0.00 0.02 0.00 64 1020.8
20260906050904 64 0 0.0 0.0 0.00 0.02 0.00 64 1020.7
20260906050008 64 0 0.0 0.0 0.00 0.02 0.00 63 1020.6
20260906045404 65 0 0.0 0.0 0.00 0.02 0.00 62 1020.6
20260906044504 65 0 0.0 0.0 0.00 0.02 0.00 62 1020.6
20260906043815 65 0 0.0 0.0 0.00 0.02 0.00 62 1020.6
20260906042703 65 0 0.0 0.0 0.00 0.02 0.00 62 1020.6
20260906041804 65 0 0.0 0.0 0.00 0.02 0.00 61 1020.4
20260906040903 65 0 0.0 0.0 0.00 0.02 0.00 61 1020.3
20260906040004 65 0 0.0 0.0 0.00 0.02 0.00 60 1020.3
20260906035408 66 0 0.0 0.0 0.00 0.02 0.00 60 1020.4
20260906034504 66 0 0.0 0.0 0.00 0.02 0.00 60 1020.4
20260906033603 66 0 0.0 0.0 0.00 0.02 0.00 59 1020.5
20260906032705 66 0 0.0 0.0 0.00 0.02 0.00 58 1020.6
20260906031804 67 0 0.0 0.0 0.00 0.02 0.00 57 1020.6
20260906030910 67 0 0.0 0.0 0.00 0.02 0.00 55 1020.6
20260906030008 67 0 0.0 0.0 0.00 0.02 0.00 56 1020.6
20260906025403 67 0 0.0 0.0 0.00 0.02 0.00 56 1020.6
20260906024503 67 0 0.0 0.0 0.00 0.02 0.00 57 1020.7
20260906023608 66 0 0.0 0.0 0.00 0.02 0.00 59 1020.8
20260906022704 66 0 0.0 0.0 0.00 0.02 0.00 59 1021.0
20260906021808 66 0 0.0 0.0 0.00 0.02 0.00 61 1021.0
20260906020903 65 0 0.0 0.0 0.00 0.02 0.00 61 1021.1
20260906020003 65 0 0.0 0.0 0.00 0.02 0.00 62 1021.1
20260906015405 65 0 0.0 0.0 0.00 0.02 0.00 63 1021.2
20260906014503 64 0 0.0 0.0 0.00 0.02 0.00 63 1021.2
20260906013814 64 0 0.0 0.0 0.00 0.02 0.00 62 1021.2
20260906012916 64 0 0.0 0.0 0.00 0.02 0.00 65 1021.4
20260906011808 64 0 0.0 0.0 0.00 0.02 0.00 67 1021.3
20260906011114 63 0 0.0 0.0 0.00 0.02 0.00 69 1021.3
20260906010214 62 0 0.0 0.0 0.00 0.02 0.00 71 1021.3
20260906005613 62 0 0.0 0.0 0.00 0.02 0.00 72 1021.4
20260906004715 61 0 0.0 0.0 0.00 0.02 0.00 73 1021.4
20260906003603 61 0 0.0 0.0 0.00 0.02 0.00 75 1021.4
20260906002705 60 0 0.0 0.0 0.00 0.02 0.00 77 1021.3
20260906002014 59 0 0.0 0.0 0.00 0.02 0.00 77 1021.3
20260906000903 59 0 0.0 0.0 0.00 0.02 0.00 78 1021.2
20260906000213 59 0 0.0 0.0 0.00 0.02 0.00 78 1021.2
20260905235404 58 0 0.0 0.0 0.00 0.02 0.00 78 1021.1
20260905234714 58 0 0.0 0.0 0.00 0.02 0.00 78 1021.1
20260905233603 58 0 0.0 0.0 0.00 0.02 0.00 79 1021.0
20260905232913 58 0 0.0 0.0 0.00 0.02 0.00 79 1020.9
20260905232014 57 0 0.0 0.0 0.00 0.02 0.00 79 1020.9
20260905231114 57 0 0.0 0.0 0.00 0.02 0.00 80 1020.7
20260905230011 57 0 0.0 0.0 0.00 0.02 0.00 81 1020.4
20260905225405 56 0 0.0 0.0 0.00 0.02 0.00 81 1020.4
20260905224504 56 0 0.0 0.0 0.00 0.02 0.00 81 1020.1
20260905223608 56 0 0.0 0.0 0.00 0.02 0.00 82 1020.1
20260905222704 55 0 0.0 0.0 0.00 0.02 0.00 82 1019.9
20260905221803 55 0 0.0 0.0 0.00 0.02 0.00 82 1019.8
20260905220903 55 0 0.0 0.0 0.00 0.02 0.00 82 1019.7
20260905220009 55 0 0.0 0.0 0.00 0.02 0.00 82 1019.6
20260905215405 54 0 0.0 0.0 0.00 0.02 0.00 83 1019.5
20260905214503 54 0 0.0 0.0 0.00 0.02 0.00 83 1019.5
20260905213603 54 0 0.0 0.0 0.00 0.02 0.00 83 1019.5
20260905212705 54 0 0.0 0.0 0.00 0.02 0.00 83 1019.3
20260905211803 54 0 0.0 0.0 0.00 0.02 0.00 83 1019.1
20260905211113 54 0 0.0 0.0 0.00 0.03 0.00 83 1019.0
20260905210009 54 0 0.0 0.0 0.00 0.04 0.00 83 1018.8
20260905205403 54 0 0.0 0.0 0.00 0.05 0.00 83 1018.7
20260905204504 54 0 0.0 0.0 0.00 0.05 0.00 83 1018.5
20260905203605 54 0 0.0 0.0 0.00 0.05 0.00 82 1018.3
20260905202705 54 0 0.0 0.0 0.00 0.06 0.00 82 1018.0
20260905201805 54 0 0.0 0.0 0.00 0.06 0.00 82 1017.9
20260905201114 54 0 0.0 0.0 0.00 0.06 0.00 82 1018.0
20260905200009 54 0 0.0 0.0 0.00 0.06 0.00 82 1017.9
20260905195613 54 0 0.0 0.0 0.00 0.06 0.00 82 1017.8
20260905194715 54 0 0.0 0.0 0.00 0.06 0.00 82 1017.8
20260905193603 54 0 0.0 0.0 0.00 0.06 0.00 82 1017.7
20260905192705 54 0 0.0 0.0 0.00 0.06 0.00 82 1017.6
20260905191803 54 0 0.0 0.0 0.00 0.06 0.00 82 1017.5
20260905190903 54 0 0.0 0.0 0.00 0.06 0.00 81 1017.3
20260905190004 55 0 0.0 0.0 0.00 0.06 0.00 82 1017.2
20260905185403 55 0 0.0 0.0 0.00 0.06 0.00 81 1017.0
20260905184504 55 0 0.0 0.0 0.00 0.06 0.00 81 1016.9
20260905183604 55 0 0.0 0.0 0.00 0.06 0.00 81 1016.7
20260905182915 55 0 0.0 0.0 0.00 0.06 0.00 81 1016.7
20260905181805 55 0 0.0 0.0 0.00 0.06 0.00 81 1016.6
20260905180905 55 0 0.0 0.0 0.00 0.06 0.00 81 1016.4
20260905180010 55 0 0.0 0.0 0.00 0.06 0.00 81 1016.3
20260905175405 55 0 0.0 0.0 0.00 0.06 0.00 81 1016.1
20260905174506 55 0 0.0 0.0 0.00 0.06 0.00 81 1016.0
20260905173604 55 0 0.0 0.0 0.00 0.06 0.00 81 1015.8
20260905172914 55 0 0.0 0.0 0.00 0.06 0.00 81 1015.6
20260905171805 55 0 0.0 0.0 0.00 0.06 0.00 81 1015.4
20260905170904 55 0 0.0 0.0 0.00 0.06 0.00 81 1015.2
20260905170004 55 0 0.0 0.0 0.00 0.06 0.00 81 1015.1
20260905165405 55 0 0.0 0.0 0.00 0.06 0.00 81 1015.0
20260905164716 55 0 0.0 0.0 0.00 0.06 0.00 81 1015.0
20260905163813 55 0 0.0 0.0 0.00 0.06 0.00 81 1014.8
20260905162703 55 0 0.0 0.0 0.00 0.06 0.00 80 1014.7
20260905161804 55 0 0.0 0.0 0.00 0.06 0.00 80 1014.7
20260905160903 55 0 0.0 0.0 0.00 0.07 0.00 81 1014.7
20260905160009 55 0 0.0 0.0 0.00 0.08 0.00 81 1014.6
20260905155614 55 0 0.0 0.0 0.00 0.08 0.00 81 1014.5
20260905154503 55 0 0.0 0.0 0.00 0.08 0.00 80 1014.2
20260905153605 55 0 0.0 0.0 0.00 0.08 0.00 80 1014.2
20260905152705 55 0 0.0 0.0 0.00 0.08 0.00 81 1014.0
20260905151803 55 0 0.0 0.0 0.00 0.08 0.00 81 1013.9
20260905150904 55 0 0.0 0.0 0.00 0.08 0.00 81 1013.7
20260905150004 55 0 0.0 0.0 0.00 0.08 0.00 81 1013.4
20260905145403 55 0 0.0 0.0 0.00 0.08 0.00 81 1013.4
20260905144505 55 0 0.0 0.0 0.00 0.08 0.00 81 1013.1
20260905143605 54 0 0.0 0.0 0.00 0.08 0.00 82 1012.9
20260905142705 54 0 0.0 0.0 0.00 0.08 0.00 82 1012.7
20260905141804 54 0 0.0 0.0 0.00 0.08 0.00 82 1012.5
20260905140903 54 0 0.0 0.0 0.00 0.08 0.00 81 1012.5
20260905140009 54 0 0.0 0.0 0.00 0.08 0.00 81 1012.3
20260905135404 55 0 0.0 0.0 0.00 0.08 0.08 81 1012.3
20260905134505 55 0 0.0 0.0 0.00 0.08 0.08 81 1012.1
20260905133604 55 0 0.0 0.0 0.00 0.08 0.08 80 1011.9
20260905132704 55 0 0.0 0.0 0.00 0.08 0.08 79 1011.8
20260905132015 55 0 0.0 0.0 0.00 0.08 0.08 79 1011.7
20260905130904 56 0 0.0 0.0 0.00 0.08 0.08 77 1011.5
20260905130008 56 0 0.0 0.0 0.00 0.08 0.08 75 1011.4
20260905125410 56 0 0.0 0.0 0.00 0.08 0.08 75 1011.4
20260905124503 56 0 0.0 0.0 0.00 0.08 0.08 73 1011.2
20260905123608 56 0 0.0 0.0 0.00 0.08 0.08 73 1011.0
20260905122919 56 0 0.0 0.0 0.00 0.08 0.08 72 1010.9
20260905122018 56 0 0.0 0.0 0.00 0.08 0.08 72 1010.9
20260905120908 56 0 0.0 0.0 0.00 0.09 0.08 71 1010.7
20260905120004 56 0 0.0 0.0 0.00 0.09 0.08 71 1010.7
20260905115409 56 0 0.0 0.0 0.00 0.09 0.08 71 1010.5
20260905114508 56 0 0.0 0.0 0.00 0.09 0.08 71 1010.4
20260905113603 56 0 0.0 0.0 0.00 0.09 0.08 71 1010.3
20260905112703 56 0 0.0 0.0 0.00 0.09 0.08 71 1010.3
20260905111804 56 0 0.0 0.0 0.00 0.09 0.08 71 1010.2
20260905110910 56 0 0.0 0.0 0.00 0.09 0.08 70 1010.0
20260905110004 56 0 0.0 0.0 0.00 0.09 0.08 69 1009.7
20260905105409 56 0 0.0 0.0 0.00 0.09 0.08 69 1009.6
20260905104503 56 0 0.0 0.0 0.00 0.09 0.08 69 1009.4
20260905103609 56 0 0.0 0.0 0.00 0.09 0.08 69 1009.3
20260905102704 56 0 0.0 0.0 0.00 0.09 0.08 69 1009.2
20260905101809 56 0 0.0 0.0 0.00 0.09 0.08 69 1009.0
20260905100913 56 0 0.0 0.0 0.00 0.10 0.08 69 1008.8
20260905100004 56 0 0.0 0.0 0.00 0.11 0.08 69 1008.6
20260905095403 56 0 0.0 0.0 0.00 0.11 0.08 69 1008.5
20260905094508 56 0 0.0 0.0 0.00 0.11 0.08 69 1008.4
20260905093603 56 0 0.0 0.0 0.00 0.11 0.08 70 1008.1
20260905092708 56 0 0.0 0.0 0.00 0.11 0.08 70 1007.7
20260905091808 56 0 0.0 0.0 0.00 0.11 0.08 70 1007.5
20260905090909 56 0 0.0 0.0 0.00 0.11 0.08 72 1007.4
20260905090004 55 0 0.0 0.0 0.00 0.11 0.08 74 1007.3
20260905085408 55 0 0.0 0.0 0.00 0.11 0.08 76 1007.2
20260905084508 55 0 0.0 0.0 0.00 0.11 0.08 76 1007.1
20260905083603 55 0 0.0 0.0 0.00 0.11 0.08 76 1006.8
20260905082913 56 0 0.0 0.0 0.00 0.11 0.08 76 1006.6
20260905081808 56 0 0.0 0.0 0.00 0.11 0.08 75 1006.6
20260905081118 56 0 0.0 0.0 0.00 0.11 0.08 75 1006.6
20260905080013 56 0 0.0 0.0 0.02 0.11 0.08 74 1006.2
20260905075404 57 0 0.0 0.0 0.02 0.11 0.08 73 1006.1
20260905074513 58 0 0.0 0.0 0.02 0.11 0.08 73 1006.1
20260905073613 59 0 0.0 0.0 0.02 0.11 0.08 73 1006.2
20260905072703 60 0 0.0 0.0 0.02 0.11 0.08 74 1005.8
20260905072018 60 0 0.0 0.0 0.02 0.11 0.08 72 1005.4
20260905070903 61 0 0.0 0.0 0.02 0.11 0.08 70 1005.0
20260905070004 62 0 0.0 0.0 0.00 0.09 0.06 65 1004.7
20260905065413 62 0 0.0 0.0 0.00 0.09 0.06 62 1004.5
20260905064504 62 0 0.0 0.0 0.00 0.09 0.06 62 1004.2
20260905063604 64 0 0.0 0.0 0.00 0.09 0.06 62 1004.4